EW5037 Weather Reports


Display with metric or nautical units.
time (UTC)temp
F
wind
direction
speed
MPH
gust
MPH
rain 1hr
in
rain 24hr
in
rain mn
in
humidity
%
barometer
mb
20260510194101 77 45 5.0 10.0 0.00 0.00 0.00 77 1016.4
20260510193021 77 45 5.0 7.0 0.00 0.00 0.00 77 1016.4
20260510191929 77 68 6.0 8.0 0.00 0.00 0.00 76 1016.6
20260510190844 77 113 7.0 12.0 0.00 0.00 0.00 75 1016.6
20260510185802 77 23 5.0 8.0 0.00 0.00 0.00 76 1016.6
20260510184710 77 135 5.0 9.0 0.00 0.00 0.00 76 1016.6
20260510183625 78 90 7.0 10.0 0.00 0.00 0.00 74 1016.7
20260510182539 78 113 7.0 10.0 0.00 0.00 0.00 75 1016.7
20260510181452 77 68 6.0 10.0 0.00 0.00 0.00 76 1017.1
20260510180408 77 113 6.0 9.0 0.00 0.00 0.00 77 1017.1
20260510175808 78 113 7.0 12.0 0.00 0.00 0.00 78 1016.9
20260510174236 77 68 6.0 6.0 0.00 0.00 0.00 79 1016.9
20260510172104 77 45 4.0 6.0 0.00 0.00 0.00 80 1017.7
20260510171026 77 45 5.0 8.0 0.00 0.00 0.00 80 1017.7
20260510165934 77 45 5.0 7.0 0.00 0.00 0.00 80 1017.7
20260510164852 77 23 5.0 10.0 0.00 0.00 0.00 80 1017.7
20260510163801 77 45 6.0 11.0 0.00 0.00 0.00 81 1017.1
20260510162717 77 23 6.0 10.0 0.00 0.00 0.00 82 1017.1
20260510161631 76 23 5.0 9.0 0.00 0.00 0.00 83 1017.3
20260510160544 76 68 5.0 9.0 0.00 0.00 0.00 83 1017.3
20260510155934 75 158 4.0 6.0 0.00 0.00 0.00 84 1017.8
20260510154414 75 113 5.0 8.0 0.00 0.00 0.00 84 1017.8
20260510153326 75 68 5.0 9.0 0.00 0.00 0.00 85 1017.6
20260510152240 74 45 6.0 9.0 0.00 0.00 0.00 85 1017.6
20260510151151 74 23 6.0 8.0 0.00 0.00 0.00 85 1017.6
20260510150106 74 45 5.0 8.0 0.00 0.00 0.00 85 1017.5
20260510145030 74 23 5.0 7.0 0.00 0.00 0.00 85 1017.5
20260510142848 74 68 5.0 9.0 0.00 0.00 0.00 86 1017.5
20260510141800 73 23 6.0 10.0 0.00 0.00 0.00 87 1017.0
20260510141220 73 68 5.0 11.0 0.00 0.00 0.00 87 1017.0
20260510135628 73 23 5.0 11.0 0.00 0.00 0.00 87 1016.9
20260510134543 72 45 6.0 8.0 0.00 0.00 0.00 87 1016.9
20260510133502 72 45 6.0 8.0 0.00 0.00 0.00 87 1016.9
20260510132413 71 45 4.0 5.0 0.00 0.00 0.00 87 1016.9
20260510131328 71 68 4.0 7.0 0.00 0.00 0.00 87 1016.6
20260510130239 71 68 6.0 11.0 0.00 0.00 0.00 87 1016.6
20260510125153 70 45 4.0 6.0 0.00 0.00 0.00 87 1016.3
20260510124105 70 68 4.0 6.0 0.00 0.00 0.00 87 1015.7
20260510123031 69 23 4.0 6.0 0.00 0.00 0.00 87 1015.7
20260510121933 69 68 4.0 5.0 0.00 0.00 0.00 87 1015.5
20260510120850 69 68 3.0 4.0 0.00 0.00 0.00 87 1015.5
20260510115803 69 45 3.0 5.0 0.00 0.00 0.00 87 1015.2
20260510114720 68 90 2.0 4.0 0.00 0.00 0.00 86 1015.2
20260510113632 68 45 2.0 4.0 0.00 0.00 0.00 86 1014.7
20260510113032 68 68 2.0 4.0 0.00 0.00 0.00 86 1014.7
20260510111501 68 68 2.0 4.0 0.00 0.00 0.00 86 1014.6
20260510110417 68 0 2.0 2.0 0.00 0.00 0.00 86 1014.6
20260510105326 68 45 2.0 3.0 0.00 0.00 0.00 86 1014.2
20260510104242 68 68 2.0 4.0 0.00 0.00 0.00 86 1014.2
20260510103154 68 23 3.0 4.0 0.00 0.00 0.00 86 1014.3
20260510102549 68 45 2.0 3.0 0.00 0.00 0.00 86 1013.7
20260510101021 68 23 1.0 3.0 0.00 0.00 0.00 86 1013.7
20260510095936 69 0 1.0 2.0 0.00 0.00 0.00 86 1014.2
20260510095330 68 23 1.0 3.0 0.00 0.00 0.00 86 1014.2
20260510093805 68 68 2.0 3.0 0.00 0.00 0.00 86 1014.0
20260510092720 68 315 3.0 4.0 0.00 0.00 0.00 86 1014.0
20260510091636 68 338 2.0 5.0 0.00 0.00 0.00 86 1013.9
20260510090547 68 338 0.0 0.0 0.00 0.00 0.00 86 1013.9
20260510085939 69 23 0.0 2.0 0.00 0.00 0.00 86 1013.6
20260510084418 69 45 2.0 3.0 0.00 0.00 0.00 86 1013.6
20260510083329 69 23 2.0 4.0 0.00 0.00 0.00 86 1013.7
20260510082726 69 338 3.0 4.0 0.00 0.00 0.00 86 1013.7
20260510081216 69 23 2.0 3.0 0.00 0.00 0.00 86 1013.4
20260510080117 69 338 2.0 4.0 0.00 0.00 0.00 86 1013.3
20260510075027 69 0 2.0 5.0 0.00 0.00 0.00 86 1013.3
20260510073938 69 158 2.0 5.0 0.00 0.00 0.00 86 1013.6
20260510072853 69 338 2.0 4.0 0.00 0.00 0.00 86 1013.6
20260510071805 69 45 4.0 7.0 0.00 0.00 0.00 86 1013.4
20260510070725 69 315 1.0 6.0 0.00 0.00 0.00 86 1013.4
20260510065632 69 315 0.0 0.0 0.00 0.00 0.00 86 1012.6
20260510065021 70 135 0.0 0.0 0.00 0.00 0.00 86 1012.6
20260510063502 70 180 0.0 0.0 0.00 0.00 0.00 86 1013.0
20260510062417 70 248 0.0 0.0 0.00 0.00 0.00 85 1013.0
20260510061326 70 158 2.0 4.0 0.00 0.00 0.00 85 1013.1
20260510060246 70 113 2.0 4.0 0.00 0.00 0.00 86 1013.1
20260510055155 70 158 4.0 8.0 0.00 0.00 0.00 86 1012.7
20260510055025 70 158 3.0 6.0 0.00 0.00 0.00 86 1012.9
20260510053032 70 135 3.0 4.0 0.00 0.00 0.00 86 1012.9
20260510051937 71 158 4.0 3.0 0.00 0.00 0.00 87 1013.4
20260510050850 71 158 4.0 7.0 0.00 0.00 0.00 87 1013.4
20260510045810 71 113 4.0 7.0 0.00 0.00 0.00 87 1013.6
20260510044720 71 113 4.0 7.0 0.00 0.00 0.00 87 1013.6
20260510043634 71 135 3.0 6.0 0.00 0.00 0.00 87 1014.4
20260510043031 71 90 4.0 6.0 0.00 0.00 0.00 87 1014.4
20260510041507 71 113 3.0 4.0 0.00 0.00 0.00 87 1014.6
20260510040857 71 180 0.0 2.0 0.00 0.00 0.00 87 1014.6
20260510035336 71 68 1.0 2.0 0.00 0.00 0.00 87 1014.7
20260510034245 71 45 0.0 2.0 0.00 0.00 0.00 87 1014.7
20260510033159 71 68 2.0 3.0 0.00 0.00 0.00 87 1015.1
20260510032111 71 113 2.0 4.0 0.00 0.00 0.00 87 1015.0
20260510031033 71 135 2.0 4.0 0.00 0.00 0.00 87 1015.0
20260510030413 71 135 2.0 5.0 0.00 0.00 0.00 87 1014.4
20260510024859 71 135 4.0 5.0 0.00 0.00 0.00 87 1014.4
20260510023809 71 135 3.0 4.0 0.00 0.00 0.00 88 1014.3
20260510022724 71 68 2.0 4.0 0.00 0.00 0.00 88 1014.3
20260510021635 71 113 2.0 4.0 0.00 0.00 0.00 88 1014.0
20260510021042 71 113 3.0 4.0 0.00 0.00 0.00 88 1014.0
20260510015945 71 113 4.0 8.0 0.00 0.00 0.00 88 1013.6
20260510014427 71 135 4.0 4.0 0.00 0.00 0.00 88 1013.6
20260510013333 70 113 5.0 8.0 0.00 0.00 0.00 88 1013.2
20260510012250 70 113 6.0 9.0 0.00 0.00 0.00 87 1013.2
20260510011638 70 135 5.0 8.0 0.00 0.00 0.00 87 1013.3
20260510010121 70 113 4.0 6.0 0.00 0.00 0.00 87 1013.3
20260510005032 70 113 3.0 5.0 0.00 0.00 0.00 87 1013.3
20260510003950 70 135 3.0 4.0 0.00 0.00 0.00 87 1013.2
20260510003821 70 68 3.0 4.0 0.00 0.00 0.00 87 1013.2
20260510001818 70 68 2.0 4.0 0.00 0.00 0.00 87 1013.7
20260510001209 70 68 1.0 3.0 0.00 0.00 0.00 87 1013.7
20260509235640 70 68 2.0 3.0 0.00 0.00 0.00 87 1013.4
20260509234556 70 113 3.0 4.0 0.00 0.00 0.00 87 1013.4
20260509233516 70 68 2.0 4.0 0.00 0.00 0.00 87 1013.5
20260509232427 70 68 2.0 4.0 0.00 0.00 0.00 87 1013.5
20260509231341 70 45 3.0 3.0 0.00 0.00 0.00 87 1013.2
20260509230253 70 45 3.0 5.0 0.00 0.00 0.00 87 1013.2
20260509225208 70 68 4.0 6.0 0.00 0.00 0.00 87 1012.9
20260509224123 70 135 4.0 5.0 0.00 0.00 0.00 87 1012.4
20260509223041 70 113 4.0 7.0 0.00 0.00 0.00 87 1012.4
20260509221950 70 68 3.0 7.0 0.00 0.00 0.00 87 1012.9
20260509220902 70 135 3.0 6.0 0.00 0.00 0.00 87 1012.9
20260509215820 70 113 1.0 4.0 0.00 0.00 0.00 87 1012.2
20260509214731 70 45 2.0 4.0 0.00 0.00 0.00 87 1012.2
20260509214123 70 113 2.0 4.0 0.00 0.00 0.00 87 1011.5
20260509212602 70 90 3.0 5.0 0.00 0.00 0.00 87 1011.5
20260509211514 70 68 4.0 5.0 0.00 0.00 0.00 87 1012.7
20260509210428 70 90 4.0 6.0 0.00 0.00 0.00 87 1012.7
20260509205342 69 68 3.0 6.0 0.00 0.00 0.00 87 1012.5
20260509204256 69 68 3.0 4.0 0.00 0.00 0.00 87 1012.5
20260509203211 69 113 4.0 9.0 0.00 0.00 0.00 87 1012.4
20260509202131 69 45 5.0 9.0 0.00 0.00 0.00 87 1012.4
20260509201514 69 68 5.0 7.0 0.00 0.00 0.00 87 1012.4
20260509195953 69 68 5.0 9.0 0.00 0.00 0.00 87 1013.3
20260509195354 69 68 6.0 11.0 0.00 0.00 0.00 87 1013.3